Stations météo

Publicité
Kleine Brogel, Belgique (6479): Température de l'air & dewpoint: 15.10.2019 06:00:00 - 21.10.2019 06:00:00 (CEST)Kleine Brogel, Belgique (6479): Vitesse du vent & gusts: 15.10.2019 06:00:00 - 21.10.2019 06:00:00 (CEST)Kleine Brogel, Belgique (6479): Direction du vent: 15.10.2019 06:00:00 - 21.10.2019 06:00:00 (CEST)Kleine Brogel, Belgique (6479): reduced air pressure: 15.10.2019 06:00:00 - 21.10.2019 06:00:00 (CEST)Kleine Brogel, Belgique (6479): visibility: 15.10.2019 06:00:00 - 21.10.2019 06:00:00 (CEST)
Date & Time tt [°C] td [°C] ff [km/h] ff [knt] fx [km/h] fx [knt] dd ppp [hPa] vv [km]
21.10.2019 06:00:00 11,1 11,0 7 4 18 10 E 1011,3 0,4
21.10.2019 05:00:00 11,0 10,9 11 6 - - E 1011,1 0,3
21.10.2019 04:00:00 10,8 10,8 7 4 11 6 ENE 1011,2 0,5
21.10.2019 03:00:00 10,8 10,7 7 4 14 8 NE 1010,8 0,9
21.10.2019 02:00:00 10,7 10,7 7 4 - - NE 1011,2 1,5
21.10.2019 01:00:00 10,6 10,5 11 6 22 12 ENE 1010,7 3,1
21.10.2019 00:00:00 10,5 10,3 14 8 22 12 NE 1010,1 3,6
20.10.2019 23:00:00 10,6 10,4 14 8 - - NE 1010,3 3,3
20.10.2019 22:00:00 10,5 10,3 14 8 22 12 NE 1009,7 4,8
20.10.2019 21:00:00 10,3 10,1 11 6 22 12 NNE 1010,0 6
20.10.2019 20:00:00 10,3 10,0 7 4 - - N 1010,0 7
20.10.2019 19:00:00 10,3 10,0 9 5 14 8 N 1009,5 10
20.10.2019 18:00:00 10,5 10,2 7 4 18 10 N 1009,3 7
20.10.2019 17:00:00 10,6 10,0 14 8 - - NE 1008,2 20
20.10.2019 16:00:00 10,7 10,2 11 6 14 8 NE 1008,6 19
20.10.2019 15:00:00 10,6 10,2 11 6 18 10 ENE 1009,1 11
20.10.2019 14:00:00 10,6 9,7 11 6 - - ENE 1009,1 5
20.10.2019 13:00:00 11,1 10,8 4 2 11 6 N 1009,0 7
20.10.2019 12:00:00 11,3 11,1 4 2 7 4 - 1009,0 5
20.10.2019 11:00:00 11,0 10,7 4 2 - - N 1009,1 12
20.10.2019 10:00:00 10,3 10,0 2 1 4 2 - 1008,7 9
20.10.2019 09:00:00 9,6 9,5 4 2 4 2 N 1008,2 6
20.10.2019 08:00:00 9,1 9,0 4 2 - - N 1008,1 7
20.10.2019 07:00:00 9,8 9,5 4 2 4 2 N 1008,2 13
20.10.2019 06:00:00 9,9 9,7 4 2 4 2 N 1007,7 16
20.10.2019 05:00:00 9,8 9,5 4 2 - - N 1007,5 16
20.10.2019 04:00:00 10,0 9,6 4 2 4 2 N 1007,2 18
20.10.2019 03:00:00 10,3 9,7 4 2 11 6 N 1007,2 19
20.10.2019 02:00:00 10,6 9,9 4 2 - - N 1007,7 18
20.10.2019 01:00:00 10,3 9,8 4 2 11 6 N 1007,7 20
20.10.2019 00:00:00 10,1 9,6 4 2 11 6 N 1007,3 20
19.10.2019 23:00:00 10,6 10,0 4 2 - - N 1007,0 20
19.10.2019 22:00:00 10,8 10,2 7 4 14 8 SSW 1006,6 20
19.10.2019 21:00:00 10,1 9,6 4 2 7 4 N 1006,3 20
19.10.2019 20:00:00 10,5 9,4 4 2 - - N 1005,8 20
19.10.2019 19:00:00 11,8 9,8 7 4 18 10 SSW 1005,5 20
19.10.2019 18:00:00 13,0 10,3 11 6 18 10 SSW 1005,2 20
19.10.2019 17:00:00 13,5 10,8 7 4 - - SSW 1004,7 20
19.10.2019 16:00:00 13,8 11,0 7 4 22 12 SSW 1004,7 20
19.10.2019 15:00:00 13,3 10,7 14 8 22 12 SSW 1004,7 20
19.10.2019 14:00:00 12,6 11,2 7 4 - - SW 1004,5 20
19.10.2019 13:00:00 11,9 10,6 7 4 14 8 SSW 1004,8 20
19.10.2019 12:00:00 10,6 9,4 11 6 32 18 W 1005,0 20
19.10.2019 11:00:00 12,9 11,0 14 8 - - SSW 1004,3 20
19.10.2019 10:00:00 12,3 10,5 11 6 25 14 S 1004,5 20
19.10.2019 09:00:00 11,7 10,1 7 4 14 8 S 1004,2 20
19.10.2019 08:00:00 11,4 10,1 7 4 - - S 1004,3 20
19.10.2019 07:00:00 11,5 9,9 9 5 18 10 S 1005,0 10
19.10.2019 06:00:00 11,7 9,4 9 5 18 10 S 1005,2 10
19.10.2019 05:00:00 12,0 8,9 7 4 - - S 1005,5 20
19.10.2019 04:00:00 11,9 8,2 11 6 22 12 S 1005,7 20
19.10.2019 03:00:00 11,3 7,8 7 4 22 12 SSE 1005,7 20
19.10.2019 02:00:00 11,5 7,5 11 6 - - S 1006,5 20
19.10.2019 01:00:00 11,2 7,3 11 6 22 12 S 1006,8 20
19.10.2019 00:00:00 11,0 7,1 11 6 22 12 S 1007,2 20
18.10.2019 23:00:00 10,9 6,9 11 6 - - S 1007,7 20
18.10.2019 22:00:00 10,8 6,9 11 6 22 12 SSW 1008,0 20
18.10.2019 21:00:00 11,3 6,9 11 6 25 14 SSW 1008,1 20
18.10.2019 20:00:00 11,9 6,9 14 8 - - SSW 1008,1 20
18.10.2019 19:00:00 12,3 7,0 14 8 32 18 SSW 1008,1 20
18.10.2019 18:00:00 13,3 7,4 18 10 40 21 SW 1007,6 20
18.10.2019 17:00:00 14,0 7,5 25 14 - - SW 1007,1 20
18.10.2019 16:00:00 13,8 7,5 22 12 43 23 SW 1006,7 20
18.10.2019 15:00:00 13,8 7,4 32 18 47 25 SW 1006,1 20
18.10.2019 14:00:00 13,0 7,7 22 12 - - SW 1005,5 20
18.10.2019 13:00:00 12,3 7,9 29 16 40 21 SW 1005,0 20
18.10.2019 12:00:00 11,6 8,4 18 10 50 27 SSW 1004,2 15
18.10.2019 11:00:00 12,0 10,5 26 14 - - SSW 1004,6 10
18.10.2019 10:00:00 14,1 11,1 14 8 29 16 S 1003,8 20
18.10.2019 09:00:00 13,3 11,0 7 4 22 12 S 1004,7 20
18.10.2019 08:00:00 12,8 11,5 7 4 - - S 1005,1 20
18.10.2019 07:00:00 12,8 11,7 8 4 14 8 S 1005,7 10
18.10.2019 06:00:00 12,6 11,7 7 4 14 8 S 1006,2 20
18.10.2019 05:00:00 12,5 11,7 7 4 - - N 1006,7 20
18.10.2019 04:00:00 12,6 11,9 11 6 18 10 S 1007,6 10
18.10.2019 03:00:00 12,5 11,3 11 6 18 10 S 1008,2 20
18.10.2019 02:00:00 12,2 11,0 11 6 - - S 1008,6 20
18.10.2019 01:00:00 12,1 11,4 7 4 18 10 S 1009,0 20
18.10.2019 00:00:00 11,8 11,5 4 2 14 8 N 1009,3 20
17.10.2019 23:00:00 12,2 11,9 7 4 - - S 1009,7 20
17.10.2019 22:00:00 12,6 12,2 4 2 11 6 N 1009,8 20
17.10.2019 21:00:00 12,2 12,1 7 4 14 8 SSW 1009,7 20
17.10.2019 20:00:00 12,6 12,2 7 4 - - N 1009,7 20
17.10.2019 19:00:00 13,0 12,5 7 4 18 10 S 1009,5 20
17.10.2019 18:00:00 13,1 12,7 7 4 14 8 SSW 1009,7 7
17.10.2019 17:00:00 13,0 12,6 4 2 - - N 1009,7 2,0
17.10.2019 16:00:00 13,2 12,6 7 4 18 10 SW 1010,3 3,0
17.10.2019 15:00:00 14,3 11,8 7 4 18 10 S 1010,7 5
17.10.2019 14:00:00 15,5 10,7 11 6 - - SW 1010,7 15
17.10.2019 13:00:00 15,3 10,6 14 8 29 16 SSW 1011,2 15
17.10.2019 12:00:00 15,1 11,8 18 10 25 14 SSW 1011,3 15
17.10.2019 11:00:00 13,6 12,3 11 6 - - SW 1011,2 10
17.10.2019 10:00:00 12,8 12,2 15 8 22 12 WSW 1011,0 4,0
17.10.2019 09:00:00 12,8 12,3 11 6 22 12 WSW 1010,2 4,0
17.10.2019 08:00:00 13,3 12,9 14 8 - - SW 1009,2 5
17.10.2019 07:00:00 13,6 13,0 14 8 22 12 SSW 1008,6 20
17.10.2019 06:00:00 13,5 12,9 14 8 25 14 SSW 1008,3 13
17.10.2019 05:00:00 13,3 12,8 14 8 - - SSW 1008,1 11
17.10.2019 04:00:00 13,5 12,7 14 8 29 16 SSW 1008,1 20
17.10.2019 03:00:00 13,3 12,6 14 8 25 14 S 1008,0 20
17.10.2019 02:00:00 13,3 12,5 14 8 - - SSW 1007,7 13
17.10.2019 01:00:00 13,1 12,5 11 6 25 14 SSW 1007,7 20
17.10.2019 00:00:00 13,1 12,6 13 7 25 14 SSW 1008,0 5
16.10.2019 23:00:00 13,3 12,6 14 8 - - SSW 1008,1 16
16.10.2019 22:00:00 13,5 12,7 14 8 25 14 SSW 1008,0 13
16.10.2019 21:00:00 13,6 13,0 14 8 25 14 SSW 1008,1 20
16.10.2019 20:00:00 13,5 13,0 14 8 - - SSW 1008,2 5
16.10.2019 19:00:00 13,6 12,9 14 8 29 16 SSW 1008,0 19
16.10.2019 18:00:00 13,6 13,0 15 8 29 16 SSW 1007,8 7
16.10.2019 17:00:00 13,6 13,2 16 9 - - SSW 1008,0 3,4
16.10.2019 16:00:00 14,1 12,5 18 10 32 18 SSW 1008,0 12
16.10.2019 15:00:00 14,1 12,5 16 9 29 16 SSW 1007,8 10
16.10.2019 14:00:00 13,1 12,4 11 6 - - S 1008,2 3,0
16.10.2019 13:00:00 12,9 11,9 11 6 36 19 S 1008,8 4,0
16.10.2019 12:00:00 13,4 11,1 14 8 32 18 S 1009,2 12
16.10.2019 11:00:00 13,0 10,5 14 8 - - S 1009,5 15
16.10.2019 10:00:00 12,3 9,9 14 8 25 14 SSW 1010,0 20
16.10.2019 09:00:00 10,6 9,3 7 4 14 8 S 1009,8 20
16.10.2019 08:00:00 10,0 9,0 7 4 - - S 1009,7 20
16.10.2019 07:00:00 11,3 10,0 11 6 22 12 SSW 1010,0 10
16.10.2019 06:00:00 11,3 10,4 14 8 29 16 SSW 1009,7 20
16.10.2019 05:00:00 11,3 10,0 14 8 - - SSW 1009,7 20
16.10.2019 04:00:00 11,2 9,7 11 6 22 12 SSW 1009,7 20
16.10.2019 03:00:00 11,6 10,3 14 8 25 14 SSW 1009,8 20
16.10.2019 02:00:00 12,3 11,1 14 8 - - SSW 1009,7 20
16.10.2019 01:00:00 12,3 11,4 14 8 18 10 SSW 1009,2 20
16.10.2019 00:00:00 12,3 11,6 9 5 18 10 SSW 1009,3 10
15.10.2019 23:00:00 12,6 12,0 11 6 - - SW 1009,2 10
15.10.2019 22:00:00 13,1 12,4 11 6 18 10 SW 1009,0 10
15.10.2019 21:00:00 13,3 12,7 4 2 11 6 N 1008,3 10
15.10.2019 20:00:00 13,3 13,0 7 4 - - N 1008,0 10
15.10.2019 19:00:00 13,5 12,8 4 2 11 6 N 1007,2 10
15.10.2019 18:00:00 13,8 13,3 4 2 14 8 N 1006,8 10
15.10.2019 17:00:00 14,1 13,3 7 4 - - SSW 1006,7 8
15.10.2019 16:00:00 14,8 13,4 7 4 14 8 SSW 1006,8 15
15.10.2019 15:00:00 14,9 13,7 7 4 18 10 SSW 1007,0 15
15.10.2019 14:00:00 15,0 13,7 11 6 - - SSW 1007,1 15
15.10.2019 13:00:00 14,9 14,2 11 6 18 10 SSW 1007,5 12
15.10.2019 12:00:00 15,1 14,1 7 4 14 8 SSW 1007,0 10
15.10.2019 11:00:00 15,1 14,4 4 2 - - N 1006,7 15
15.10.2019 10:00:00 14,2 13,9 8 4 14 8 S 1007,1 5
15.10.2019 09:00:00 14,0 13,3 7 4 18 10 SSW 1006,3 9
15.10.2019 08:00:00 15,0 12,4 7 4 - - SSW 1006,2 15
15.10.2019 07:00:00 14,6 12,0 8 4 14 8 S 1005,8 10
15.10.2019 06:00:00 14,1 12,6 4 2 7 4 N 1005,7 20

tt = Température de l'air
td = dewpoint
ff = Vitesse du vent
fx = gusts
dd = Direction du vent
ppp = reduced air pressure
vv = visibility

stations d'obs. à proximité